Barcelona, Spain

12:32 AM CEST en Septiembre 26, 2017 (GMT +0200)
El Prat

Tiempo Historia de LEBL - Septiembre, 2017

Change the Weather History Date:

Miércoles, Septiembre 13, 2017

  Actual Average Record
Temperature  
Temperatura media 72 ° F -  
Temperatura máxima 80 ° F 72 ° F 86 ° F (2012)
Temperatura mínima 64 ° F 59 ° F 57 ° F (1996)
Cooling Degree Days 7    
Growing Degree Days 22 (Base 50)    
Moisture  
Punto de rocío 63 ° F    
Average Humidity 70    
Maximum Humidity 88    
Minimum Humidity 38    
Precipitación  
Precipitación 0.00 pul 0.11 pul - ()
Presión al nivel del mar  
Presión al nivel del mar 30.15 pul    
Viento  
Velocidad del viento 10 mph ()    
Velocidad máxima del viento 24 mph    
Max Gust Speed 26 mph    
Visibilidad 8.0 Millas    
Eventos      
Averages and records for this station are not official NWS values.
T = Trace of Precipitation, MM = Missing Value Source: Averaged Metar Reports

Daily Weather History Graph

Daily Weather History Graph

Search for Another Location

Airport or City:

Trip Planner

Search our weather history database for the weather conditions in past years. The results will help you decide how hot, cold, wet, or windy it might be!

Date:

Astronomía

Sep. 13, 2017 Salida Puesta
Hora real 7:30 AM CEST 8:04 PM CEST
Crepúsculo civil 7:02 AM CEST 8:32 PM CEST
Crepúsculo náutico 6:29 AM CEST 9:04 PM CEST
Crepúsculo astronómico 5:55 AM CEST 9:38 PM CEST
Luna 12:19 AM CEST (9/13) 3:06 PM CEST (9/13)
Horas de luz 13h 29m
Horas de luz
12h 34m
Gibosa menguante, 48% of the Moon is Illuminated
Sep 13
Gibosa menguante
Sep 20
Nueva
Sep 28
Cuarto creciente
Oct 5
Luna llena
Oct 12
Cuarto menguante

Hourly Weather History & Observations

Hora (CEST) Temp. Punto de rocío Humedad Presión Visibilidad Wind Dir Velocidad del viento Velocidad de ráfagas Precip Eventos Condiciones
12:00 AM 71.6 ° F 62.6 ° F 73% 30.12 pul 6.2 mi Sur 6.9 mph - N/A   Nubes dispersas
12:30 AM 71.6 ° F 64.4 ° F 78% 30.15 pul 6.2 mi Sur 5.8 mph - N/A   Nubes dispersas
1:00 AM 73 ° F 64 ° F 65% 30.16 pul 12 mi Sur 6.9 mph - -  
1:00 AM 71.6 ° F 64.4 ° F 78% 30.15 pul 6.2 mi Sur 5.8 mph - N/A   Nubes dispersas
1:30 AM 71.6 ° F 64.4 ° F 78% 30.15 pul 6.2 mi Sur 6.9 mph - N/A   Nubes dispersas
2:00 AM 70 ° F 63 ° F 71% 30.16 pul 9 mi Norte 2.3 mph - -   Muy nublado
2:00 AM 69.8 ° F 62.6 ° F 78% 30.15 pul 6.2 mi Oeste 4.6 mph - N/A   Muy nublado
2:30 AM 68.0 ° F 62.6 ° F 83% 30.15 pul 6.2 mi NNO 1.2 mph - N/A   Muy nublado
3:00 AM 69 ° F 62 ° F 73% 30.16 pul 8 mi Norte 8.1 mph - -  
3:00 AM 68.0 ° F 62.6 ° F 83% 30.15 pul 6.2 mi Variable 2.3 mph - N/A   Muy nublado
3:30 AM 68.0 ° F 62.6 ° F 83% 30.15 pul 6.2 mi NO 8.1 mph - N/A   Muy nublado
4:00 AM 68 ° F 62 ° F 77% 30.15 pul 9 mi Norte 9.2 mph - -  
4:00 AM 68.0 ° F 62.6 ° F 83% 30.15 pul 6.2 mi NO 6.9 mph - N/A   Muy nublado
4:30 AM 68.0 ° F 62.6 ° F 83% 30.12 pul 6.2 mi NNO 3.5 mph - N/A   Muy nublado
5:00 AM 67 ° F 62 ° F 79% 30.14 pul 9 mi Norte 8.1 mph - -   Nubes dispersas
5:00 AM 66.2 ° F 62.6 ° F 88% 30.12 pul 6.2 mi NNO 8.1 mph - N/A   Parcialmente nublado
5:30 AM 66.2 ° F 62.6 ° F 88% 30.12 pul 6.2 mi NNO 10.4 mph - N/A   Parcialmente nublado
6:00 AM 67 ° F 62 ° F 80% 30.14 pul 9 mi Norte 6.9 mph - -  
6:00 AM 66.2 ° F 62.6 ° F 88% 30.12 pul 6.2 mi NO 8.1 mph - N/A   Parcialmente nublado
6:30 AM 66.2 ° F 62.6 ° F 88% 30.12 pul 6.2 mi NNO 9.2 mph - N/A   Parcialmente nublado
7:00 AM 67 ° F 62 ° F 78% 30.15 pul 9 mi Norte 8.1 mph - -  
7:00 AM 66.2 ° F 62.6 ° F 88% 30.12 pul 6.2 mi NO 9.2 mph - N/A   Parcialmente nublado
7:30 AM 66.2 ° F 60.8 ° F 83% 30.15 pul 6.2 mi NNO 10.4 mph - N/A   Parcialmente nublado
8:00 AM 64.4 ° F 60.8 ° F 88% 30.15 pul 6.2 mi NNO 10.4 mph - N/A   Parcialmente nublado
8:30 AM 64.4 ° F 60.8 ° F 88% 30.15 pul 6.2 mi NNO 10.4 mph 21.9 mph N/A   Parcialmente nublado
9:00 AM 68 ° F 60 ° F 69% 30.18 pul 8 mi Norte 9.2 mph - -  
9:00 AM 66.2 ° F 60.8 ° F 83% 30.18 pul 6.2 mi NO 12.7 mph 26.5 mph N/A   Parcialmente nublado
9:30 AM 68.0 ° F 60.8 ° F 78% 30.18 pul 6.2 mi NO 11.5 mph - N/A   Parcialmente nublado
10:00 AM 72 ° F 61 ° F 61% 30.20 pul 12 mi Norte 8.1 mph - -  
10:00 AM 69.8 ° F 60.8 ° F 73% 30.18 pul 6.2 mi NNO 8.1 mph 20.7 mph N/A   Parcialmente nublado
10:30 AM 73.4 ° F 60.8 ° F 65% 30.18 pul 6.2 mi NNO 9.2 mph - N/A   Parcialmente nublado
11:00 AM 77 ° F 58 ° F 41% 30.21 pul - SE 2.3 mph - -   Nubes dispersas
11:00 AM 75.2 ° F 59.0 ° F 57% 30.21 pul 6.2 mi NNO 5.8 mph - N/A   Parcialmente nublado
11:30 AM 75.2 ° F 59.0 ° F 57% 30.21 pul 6.2 mi SO 5.8 mph - N/A   Parcialmente nublado
12:00 PM 78 ° F 58 ° F 40% 30.20 pul 19 mi SSO 13.8 mph - -  
12:00 PM 77.0 ° F 59.0 ° F 54% 30.18 pul 6.2 mi SSO 9.2 mph - N/A   Parcialmente nublado
12:30 PM 77.0 ° F 59.0 ° F 54% 30.18 pul 6.2 mi SO 16.1 mph - N/A   Parcialmente nublado
1:00 PM 79 ° F 58 ° F 38% 30.20 pul 19 mi SO 16.1 mph - -  
1:00 PM 77.0 ° F 57.2 ° F 50% 30.18 pul 6.2 mi SSO 15.0 mph - N/A   Parcialmente nublado
1:30 PM 78.8 ° F 60.8 ° F 54% 30.18 pul 6.2 mi SO 18.4 mph - N/A   Parcialmente nublado
2:00 PM 80 ° F 61 ° F 42% 30.19 pul 22 mi OSO 18.4 mph - -   Nubes dispersas
2:00 PM 78.8 ° F 62.6 ° F 57% 30.18 pul 6.2 mi SO 18.4 mph - N/A   Parcialmente nublado
2:30 PM 78.8 ° F 64.4 ° F 61% 30.18 pul 6.2 mi SO 20.7 mph - N/A   Parcialmente nublado
3:00 PM 80 ° F 65 ° F 52% 30.17 pul 19 mi OSO 19.6 mph - -  
3:00 PM 78.8 ° F 66.2 ° F 65% 30.15 pul 6.2 mi SO 20.7 mph - N/A   Parcialmente nublado
3:30 PM 78.8 ° F 66.2 ° F 65% 30.15 pul 6.2 mi SO 21.9 mph - N/A   Parcialmente nublado
4:00 PM 80 ° F 65 ° F 50% 30.16 pul 19 mi OSO 19.6 mph - -  
4:00 PM 78.8 ° F 64.4 ° F 61% 30.15 pul 6.2 mi SO 21.9 mph - N/A   Parcialmente nublado
4:30 PM 78.8 ° F 64.4 ° F 61% 30.12 pul 6.2 mi SO 21.9 mph - N/A   Parcialmente nublado
5:00 PM 80 ° F 65 ° F 51% 30.14 pul 19 mi OSO 18.4 mph - -   Nubes dispersas
5:00 PM 78.8 ° F 66.2 ° F 65% 30.12 pul 6.2 mi SO 24.2 mph - N/A   Parcialmente nublado
5:30 PM 78.8 ° F 66.2 ° F 65% 30.12 pul 6.2 mi OSO 21.9 mph - N/A   Parcialmente nublado
6:00 PM 79 ° F 66 ° F 56% 30.12 pul 12 mi OSO 18.4 mph - -  
6:00 PM 77.0 ° F 66.2 ° F 69% 30.12 pul 6.2 mi SO 24.2 mph - N/A   Parcialmente nublado
6:30 PM 77.0 ° F 66.2 ° F 69% 30.09 pul 6.2 mi SO 23.0 mph - N/A   Parcialmente nublado
7:00 PM 78 ° F 66 ° F 59% 30.11 pul 13 mi SO 19.6 mph - -  
7:00 PM 77.0 ° F 68.0 ° F 74% 30.09 pul 6.2 mi SO 24.2 mph - N/A   Parcialmente nublado
7:30 PM 75.2 ° F 66.2 ° F 73% 30.09 pul 6.2 mi SO 20.7 mph - N/A   Parcialmente nublado
8:00 PM 75.2 ° F 66.2 ° F 73% 30.09 pul 6.2 mi SO 18.4 mph - N/A   Parcialmente nublado
8:30 PM 75.2 ° F 68.0 ° F 78% 30.12 pul 6.2 mi SO 16.1 mph - N/A   Parcialmente nublado
9:00 PM 76 ° F 67 ° F 68% 30.12 pul 11 mi OSO 15.0 mph - -  
9:00 PM 75.2 ° F 68.0 ° F 78% 30.12 pul 6.2 mi SO 16.1 mph - N/A   Parcialmente nublado
9:30 PM 75.2 ° F 68.0 ° F 78% 30.12 pul 6.2 mi OSO 17.3 mph - N/A   Parcialmente nublado
10:00 PM 75 ° F 68 ° F 72% 30.13 pul 11 mi OSO 15.0 mph - -  
10:00 PM 75.2 ° F 68.0 ° F 78% 30.12 pul 6.2 mi OSO 19.6 mph - N/A   Parcialmente nublado
10:30 PM 73.4 ° F 68.0 ° F 83% 30.12 pul 6.2 mi OSO 18.4 mph - N/A   Parcialmente nublado
11:00 PM 74 ° F 67 ° F 73% 30.13 pul 12 mi OSO 11.5 mph - -   Nubes dispersas
11:00 PM 73.4 ° F 68.0 ° F 83% 30.12 pul 6.2 mi OSO 16.1 mph - N/A   Parcialmente nublado
11:30 PM 73.4 ° F 68.0 ° F 83% 30.12 pul 6.2 mi OSO 15.0 mph - N/A   Parcialmente nublado